This is the latest recevied weather packets stored in our database for station/object K0APR. If no packets are shown the sender has not sent any weather packets the latest 10 day(s).
| Time | Temp. | Humidity | Pressure | Rain* | Wind** | Luminosity | Snow |
|---|---|---|---|---|---|---|---|
| 1788292234 | 27.22° C | 63% | 1014 hPa | 0 mm | - | 117 W/m² | - |
| 1788291929 | 27.22° C | 63% | 1014.4 hPa | 0 mm | - | 79 W/m² | - |
| 1788291624 | 27.78° C | 61% | 1014.4 hPa | 0 mm | - | 97 W/m² | - |
| 1788291324 | 27.22° C | 60% | 1014.4 hPa | 0 mm | - | 130 W/m² | - |
| 1788291019 | 27.22° C | 57% | 1014.4 hPa | 0 mm | - | 135 W/m² | - |
| 1788290714 | 27.78° C | 57% | 1014.7 hPa | 0 mm | - | 151 W/m² | - |
| 1788290410 | 27.78° C | 58% | 1014.4 hPa | 0 mm | - | 229 W/m² | - |
| 1788290106 | 27.78° C | 57% | 1014.7 hPa | 0 mm | - | 288 W/m² | - |
| 1788289801 | 27.78° C | 57% | 1014.7 hPa | 0 mm | - | 312 W/m² | - |
| 1788289506 | 27.22° C | 58% | 1014.7 hPa | 0 mm | - | 460 W/m² | - |
| 1788289195 | 27.22° C | 59% | 1014.7 hPa | 0 mm | - | 335 W/m² | - |
| 1788288889 | 27.22° C | 60% | 1014.7 hPa | 0 mm | - | 344 W/m² | - |
| 1788288589 | 27.22° C | 59% | 1015.1 hPa | 0 mm | - | 340 W/m² | - |
| 1788288284 | 26.67° C | 61% | 1014.7 hPa | 0 mm | - | 210 W/m² | - |
| 1788287980 | 26.67° C | 61% | 1015.1 hPa | 0 mm | - | 153 W/m² | - |
| 1788287679 | 26.11° C | 63% | 1014.7 hPa | 0 mm | - | 127 W/m² | - |
| 1788287375 | 26.67° C | 61% | 1014.7 hPa | 0 mm | - | 138 W/m² | - |
| 1788287071 | 26.67° C | 62% | 1015.1 hPa | 0 mm | - | 144 W/m² | - |
| 1788286771 | 26.67° C | 62% | 1014.7 hPa | 0 mm | - | 121 W/m² | - |
| 1788286466 | 26.67° C | 60% | 1014.7 hPa | 0 mm | - | 123 W/m² | - |
| 1788286164 | 26.67° C | 60% | 1014.7 hPa | 0 mm | - | 158 W/m² | - |
| 1788285864 | 27.22° C | 58% | 1015.1 hPa | 0 mm | - | 198 W/m² | - |
| 1788285562 | 27.22° C | 57% | 1014.7 hPa | 0 mm | - | 227 W/m² | - |
| 1788285258 | 27.22° C | 57% | 1014.7 hPa | 0 mm | - | 242 W/m² | - |
| 1788284953 | 27.22° C | 57% | 1015.5 hPa | 0 mm | - | 202 W/m² | - |
* Rain latest hour (hover to see other rain measurements)
** Current wind speed in m/s (hover to see current wind gust speed)